Temperature
4 3 4 3 3 3 3 2 1 1 1 0 -1 -1 -0 -1 -2 -3 -5 -6 -7 -8 -8 -9 -9 -9 -10 -10 -10 -11 -11 -11 -11 -11 -11 -11 -11 -11 -10 -10 -10 -9 -9 -8
4 2 3 3 2 3 2 2 1 1 -0 1 1 0 -1 -2 -3 -4 -6 -7 -8 -8 -9 -9 -10 -10 -10 -11 -11 -11 -11 -11 -12 -12 -12 -12 -12 -12 -11 -11 -10 -10 -10 -9
3 2 3 2 2 2 2 2 1 0 -0 0 -1 -1 -2 -3 -4 -6 -7 -7 -8 -9 -9 -10 -10 -11 -11 -11 -12 -12 -12 -12 -12 -13 -13 -13 -13 -12 -12 -12 -11 -11 -10 -10
1 2 4 3 2 2 2 1 0 0 -0 0 -1 -1 -2 -4 -5 -6 -7 -8 -9 -9 -9 -10 -11 -11 -11 -12 -12 -12 -12 -12 -13 -13 -13 -13 -13 -13 -13 -12 -12 -12 -11 -11
-0 2 2 2 2 2 2 1 0 0 0 -0 -1 -2 -3 -4 -5 -7 -8 -9 -9 -9 -10 -10 -11 -11 -11 -12 -12 -12 -13 -13 -13 -14 -14 -14 -14 -14 -13 -13 -13 -12 -12 -11
-1 3 4 3 2 2 1 -0 1 1 -0 -1 -2 -4 -4 -5 -6 -7 -8 -9 -9 -9 -10 -10 -11 -11 -12 -12 -13 -13 -13 -13 -14 -14 -14 -14 -14 -14 -14 -14 -13 -13 -12 -12
-1 -0 0 1 2 2 0 0 1 0 -0 -2 -3 -4 -5 -6 -7 -8 -8 -9 -9 -9 -10 -11 -11 -11 -12 -12 -13 -13 -13 -13 -13 -14 -14 -14 -14 -14 -14 -14 -14 -13 -13 -12
-1 -1 0 2 1 -0 0 1 0 -0 -1 -3 -4 -5 -6 -7 -8 -8 -8 -9 -9 -9 -10 -10 -11 -12 -12 -12 -13 -13 -13 -13 -13 -13 -14 -14 -14 -14 -14 -14 -14 -14 -14 -13
-0 1 1 2 2 1 1 1 -0 -1 -2 -4 -5 -6 -7 -7 -8 -8 -8 -9 -9 -9 -10 -10 -11 -12 -12 -12 -13 -13 -13 -13 -13 -13 -13 -14 -14 -14 -14 -14 -14 -15 -14 -14
-1 -1 1 1 1 1 1 -0 -1 -2 -3 -4 -6 -7 -7 -7 -8 -8 -8 -9 -9 -9 -10 -10 -10 -11 -12 -12 -13 -13 -13 -12 -13 -13 -13 -14 -14 -14 -15 -15 -15 -15 -15 -14
-1 -0 1 1 1 1 0 -1 -2 -3 -4 -5 -6 -7 -7 -7 -8 -8 -9 -9 -9 -10 -10 -10 -10 -11 -11 -12 -12 -12 -12 -12 -13 -14 -14 -14 -14 -15 -15 -15 -15 -14 -14 -14
-0 1 1 1 1 0 -0 -1 -2 -4 -5 -5 -6 -7 -7 -8 -8 -8 -9 -9 -9 -9 -10 -10 -10 -11 -11 -12 -12 -12 -12 -13 -14 -14 -14 -15 -15 -15 -14 -15 -14 -14 -14 -14
2 2 2 1 0 -0 -1 -2 -3 -4 -5 -6 -6 -7 -7 -8 -8 -8 -8 -9 -9 -10 -10 -10 -10 -11 -11 -11 -11 -12 -12 -13 -14 -14 -14 -15 -15 -15 -14 -15 -15 -15 -15 -15
2 2 1 0 0 -0 -1 -2 -4 -5 -6 -6 -7 -7 -7 -8 -8 -8 -8 -9 -9 -10 -10 -10 -10 -10 -11 -11 -11 -11 -12 -13 -14 -14 -14 -14 -15 -15 -15 -15 -15 -15 -15 -15
1 1 1 0 -0 -1 -2 -3 -5 -5 -6 -6 -7 -7 -7 -8 -8 -8 -8 -9 -9 -9 -10 -10 -10 -10 -10 -10 -11 -11 -12 -13 -14 -14 -14 -15 -15 -15 -15 -15 -16 -16 -16 -16
1 1 0 0 -0 -1 -3 -4 -5 -5 -6 -7 -7 -7 -7 -8 -8 -8 -9 -9 -9 -9 -9 -9 -9 -10 -10 -10 -11 -11 -12 -13 -14 -14 -14 -15 -15 -15 -15 -15 -16 -16 -16 -16
1 0 0 -0 -1 -2 -3 -4 -5 -6 -6 -6 -7 -7 -7 -7 -8 -8 -8 -8 -9 -9 -9 -9 -9 -9 -10 -10 -10 -11 -12 -12 -13 -13 -14 -15 -15 -15 -15 -15 -15 -15 -16 -15
1 1 0 -0 -1 -2 -3 -4 -5 -6 -6 -6 -7 -7 -7 -7 -7 -8 -8 -8 -8 -8 -8 -8 -9 -10 -10 -10 -10 -11 -11 -12 -12 -13 -14 -15 -15 -15 -15 -15 -15 -15 -16 -16
0 0 -0 -1 -1 -2 -3 -4 -5 -6 -6 -6 -7 -7 -7 -7 -8 -8 -8 -8 -8 -8 -8 -8 -9 -9 -9 -10 -10 -11 -11 -11 -12 -13 -14 -15 -15 -15 -15 -15 -15 -15 -15 -16
0 -0 -0 -1 -2 -3 -4 -5 -5 -6 -6 -6 -7 -7 -7 -7 -8 -7 -7 -7 -8 -8 -8 -9 -9 -9 -9 -10 -10 -10 -10 -11 -12 -13 -14 -14 -14 -15 -15 -15 -15 -15 -15 -15
0 -0 -1 -2 -3 -3 -4 -5 -5 -6 -6 -6 -7 -7 -7 -7 -8 -7 -7 -7 -7 -7 -8 -8 -8 -9 -10 -10 -9 -9 -10 -11 -12 -13 -13 -13 -14 -14 -15 -15 -15 -15 -15 -15
-0 -1 -1 -2 -3 -4 -5 -5 -6 -6 -6 -6 -7 -7 -7 -7 -7 -7 -7 -7 -7 -7 -8 -8 -8 -9 -9 -9 -9 -9 -10 -11 -12 -13 -13 -13 -13 -14 -14 -15 -15 -15 -15 -15
-0 -1 -2 -3 -3 -4 -5 -5 -6 -6 -6 -7 -7 -7 -7 -7 -7 -7 -7 -7 -7 -7 -8 -8 -8 -9 -9 -9 -9 -9 -9 -10 -11 -12 -12 -12 -13 -13 -13 -14 -14 -14 -15 -15
-1 -2 -2 -3 -4 -4 -5 -5 -6 -6 -6 -7 -7 -7 -7 -7 -7 -7 -7 -7 -7 -7 -7 -7 -8 -8 -9 -9 -9 -9 -9 -9 -10 -11 -11 -12 -12 -12 -13 -13 -13 -14 -14 -14
-1 -2 -3 -3 -4 -4 -5 -6 -6 -6 -6 -7 -7 -7 -7 -7 -7 -7 -7 -7 -7 -7 -7 -7 -7 -8 -8 -9 -9 -9 -9 -9 -10 -10 -10 -11 -11 -11 -12 -12 -13 -13 -13 -13
-2 -2 -3 -4 -4 -5 -5 -5 -6 -6 -6 -7 -7 -7 -7 -7 -7 -7 -7 -7 -7 -7 -7 -7 -7 -7 -8 -8 -9 -9 -9 -9 -9 -9 -10 -10 -10 -10 -11 -11 -11 -12 -12 -13
-2 -3 -4 -4 -4 -5 -5 -6 -6 -6 -6 -7 -7 -7 -7 -7 -7 -7 -7 -7 -7 -7 -7 -7 -7 -7 -8 -8 -9 -9 -9 -9 -9 -9 -9 -9 -10 -10 -10 -10 -10 -11 -11 -11
Wind_Speed
1 3 1 2 1 1 4 5 5 6 6 8 8 9 11 11 9 10 11 11 10 10 9 10 11 11 12 12 13 14 15 15 15 14 14 14 15 15 15 15 16 15 15 15
1 3 1 2 2 2 3 3 4 6 7 5 8 8 9 11 9 10 11 11 11 12 11 11 11 12 13 13 13 14 14 14 15 15 15 15 14 14 15 15 15 15 15 15
3 4 3 5 6 5 3 4 5 6 6 7 9 11 12 9 7 9 10 11 11 11 10 10 10 11 12 12 12 13 13 14 15 14 15 15 16 15 15 14 14 14 14 14
2 5 4 4 2 3 3 6 6 5 6 8 8 10 7 3 5 7 8 9 9 9 10 9 8 10 11 11 11 12 13 13 14 14 14 15 14 14 14 13 12 11 12 13
2 3 8 3 3 4 2 5 3 4 7 8 7 7 3 3 4 5 4 6 6 7 7 8 9 10 11 11 11 12 13 14 14 14 14 14 13 14 13 12 11 11 11 12
3 2 6 2 3 3 3 5 2 3 6 7 8 8 4 5 5 4 5 5 6 7 7 9 9 9 10 11 11 12 14 14 14 13 14 13 12 12 12 12 12 14 12 11
4 5 8 4 3 5 2 4 2 3 5 5 4 5 7 7 5 5 5 6 7 8 8 9 9 9 10 11 11 13 14 14 14 13 13 11 9 10 12 12 12 12 12 11
5 4 8 4 7 6 6 1 2 3 3 4 5 6 7 7 7 8 8 8 8 8 9 9 9 9 11 12 13 13 14 14 14 13 12 12 10 10 11 11 11 10 9 10
9 7 3 3 5 4 3 0 2 2 3 3 4 5 6 6 6 6 7 8 8 8 10 10 9 9 11 14 14 14 14 14 14 14 11 11 10 10 9 8 8 10 8 9
4 6 4 3 4 4 3 2 2 2 2 2 2 4 5 6 7 7 8 8 8 10 12 12 11 12 11 13 14 14 15 15 14 13 12 10 10 9 9 9 9 10 9 8
4 3 3 3 3 3 3 4 4 4 4 4 3 3 4 5 6 7 8 8 9 10 11 13 13 14 14 14 14 15 16 15 15 14 12 11 11 9 12 9 12 12 7 6
7 6 7 5 4 5 4 3 4 4 4 4 4 3 4 5 5 6 8 8 10 11 13 14 14 15 15 14 14 15 16 16 14 14 13 12 12 12 16 16 19 19 16 14
4 5 5 7 6 4 5 5 6 6 5 3 3 3 4 4 5 7 8 9 11 13 14 14 15 15 15 15 16 16 17 17 15 14 14 14 14 13 12 12 15 16 16 16
5 7 5 5 5 6 7 7 7 6 5 4 2 3 4 5 6 8 9 10 11 13 13 13 14 15 15 15 17 17 17 18 17 13 13 13 13 12 11 11 10 8 11 14
6 5 7 7 8 7 7 6 6 4 3 2 3 4 5 6 8 9 10 11 12 12 13 13 14 16 16 16 18 18 16 14 14 13 13 13 12 12 11 11 9 8 7 9
8 8 8 8 8 7 6 5 5 4 2 1 2 4 5 6 8 9 9 9 11 13 14 14 15 16 16 17 17 15 13 21 20 14 13 13 12 12 11 10 9 7 6 6
10 8 7 6 6 6 5 5 5 5 3 1 2 4 5 7 7 9 11 11 10 11 12 12 15 17 16 16 14 12 12 14 21 16 12 13 12 12 11 9 8 7 6 8
7 7 8 7 7 8 7 6 6 5 3 1 1 3 5 7 8 11 12 13 13 12 10 11 14 14 14 14 12 9 11 11 12 12 13 13 13 12 11 9 9 8 5 7
8 9 8 8 8 9 8 7 6 5 4 2 2 3 4 6 7 9 10 11 11 12 13 15 22 16 15 16 15 8 10 12 12 12 12 17 15 12 11 10 9 7 6 5
9 9 9 8 8 7 7 7 7 5 3 2 2 4 6 7 8 9 10 8 6 7 12 15 14 13 13 12 16 9 11 12 13 13 12 12 12 13 12 12 10 8 6 5
10 9 9 9 7 7 8 8 7 6 4 2 1 3 6 8 8 8 8 8 8 11 13 17 13 12 11 13 14 10 11 12 12 11 11 11 11 12 12 11 10 9 8 6
9 9 10 9 9 7 6 6 6 6 4 1 1 3 6 8 9 8 6 5 9 17 12 8 9 16 18 16 9 10 11 12 12 10 9 9 10 10 10 10 9 9 8 7
10 9 10 10 9 8 7 5 6 5 4 2 2 4 5 6 6 6 8 8 8 16 11 7 16 22 21 11 10 11 12 12 12 11 9 8 8 8 8 9 8 7 7 6
10 10 9 8 9 8 7 6 5 4 3 2 3 4 4 5 5 4 5 14 17 16 8 14 20 21 18 9 10 11 12 12 12 10 9 7 7 6 6 7 7 6 6 7
10 9 9 11 10 7 7 7 5 3 3 3 4 5 4 3 4 7 7 9 14 13 8 14 19 19 13 8 10 11 11 12 14 13 11 9 7 7 7 6 6 7 6 6
9 9 9 8 7 6 7 6 5 4 3 2 2 2 3 3 5 6 6 7 9 12 8 8 11 13 10 9 10 12 12 13 14 13 13 11 9 8 7 7 8 7 7 7
8 7 6 5 5 6 7 7 6 5 4 3 2 2 3 4 5 6 7 6 7 7 6 8 10 10 10 10 10 12 12 13 13 13 14 12 10 8 8 9 8 8 8 8
Wind_Direction
266 12 271 228 270 218 169 184 209 256 271 285 298 310 312 319 327 336 343 344 347 347 343 339 338 337 337 336 336 337 336 336 335 333 334 335 336 338 339 339 340 337 337 336
275 4 296 221 219 171 161 190 236 265 277 263 301 316 317 323 333 338 339 342 346 344 341 338 336 336 336 333 333 334 332 332 333 336 337 338 337 339 339 338 337 338 339 338
287 324 335 269 209 187 211 221 223 249 263 305 319 322 317 323 341 337 338 344 344 340 335 330 328 331 329 326 326 329 329 330 333 335 338 338 339 341 339 336 335 335 335 338
329 17 283 274 150 176 239 259 233 241 276 298 297 302 303 359 350 338 342 342 335 330 328 322 320 326 325 322 324 327 328 330 333 335 335 336 338 339 337 333 332 330 330 334
88 296 279 283 235 190 230 288 239 246 289 303 313 313 310 47 10 348 343 332 322 319 315 316 321 324 325 324 324 328 331 333 332 332 333 334 338 336 335 333 331 332 333 333
134 263 264 250 160 137 99 301 286 260 296 314 341 336 327 21 10 358 345 331 324 321 319 321 319 323 325 324 325 328 330 329 328 328 329 327 332 332 332 333 335 338 337 336
179 236 267 236 155 118 122 273 309 311 307 319 311 282 323 358 1 356 342 329 325 322 320 316 316 324 323 321 319 320 323 324 325 325 321 319 325 327 329 334 334 335 336 338
165 217 268 203 141 167 211 242 310 313 320 313 301 314 336 348 347 346 339 332 327 326 322 318 317 320 319 317 314 316 318 319 319 318 317 325 320 319 322 327 331 330 332 337
193 213 259 184 170 161 144 108 348 342 349 338 322 331 341 341 340 339 333 328 326 323 321 319 316 316 315 315 315 316 316 315 313 312 310 309 309 311 314 318 324 327 331 336
236 258 231 163 119 98 86 83 59 68 53 34 347 346 348 341 343 339 331 330 328 328 326 321 319 318 312 312 316 316 314 313 312 312 309 304 307 309 312 311 312 316 324 329
240 245 135 157 143 119 100 94 92 85 76 63 44 14 353 339 335 331 333 328 329 325 320 317 319 318 318 318 316 315 314 313 314 314 309 305 304 300 304 296 301 311 315 313
214 200 171 185 152 130 123 114 109 107 90 67 51 15 351 336 326 324 325 324 324 323 323 320 319 317 317 317 318 316 317 318 318 317 314 314 310 306 304 307 312 318 320 320
164 147 135 129 121 117 119 111 100 96 99 88 49 20 355 329 321 323 322 324 323 321 319 318 318 316 317 320 320 317 316 318 318 318 316 314 313 313 313 315 317 321 323 325
151 123 122 143 136 117 112 110 104 95 86 80 49 16 353 331 323 325 322 320 317 317 317 318 318 318 319 320 320 320 320 320 323 318 319 321 323 323 322 320 320 320 322 324
149 134 138 129 118 116 118 120 116 113 101 58 26 7 348 337 325 318 314 319 322 321 321 322 321 319 320 322 325 325 325 326 328 332 334 333 331 328 324 321 318 315 313 317
123 108 116 127 137 138 135 138 144 151 139 71 354 342 331 317 308 308 314 323 326 322 320 319 318 318 322 325 328 329 330 336 343 341 336 333 329 327 325 324 321 315 311 307
138 151 157 159 162 158 154 153 154 154 153 160 320 329 332 330 327 329 329 329 319 308 306 309 316 319 322 327 328 332 336 338 343 341 336 334 332 332 331 328 324 319 311 305
163 160 159 157 162 156 145 139 141 146 155 162 14 356 350 344 332 323 323 325 324 323 319 322 320 324 329 329 335 343 340 337 339 339 339 340 346 344 339 334 331 329 326 324
129 127 124 127 138 144 146 149 149 146 139 111 40 356 328 314 309 310 316 322 325 331 327 323 332 339 330 336 350 342 339 340 343 343 345 351 354 351 351 349 348 346 342 343
122 122 119 118 121 132 143 146 145 143 137 109 37 348 334 325 320 319 319 308 292 297 307 325 338 332 328 342 355 344 343 344 344 347 351 355 356 358 358 358 360 2 2 0
138 137 136 136 135 139 147 148 150 152 146 123 41 332 317 313 317 321 322 322 323 324 329 343 341 330 341 355 353 346 345 345 345 348 352 355 355 357 358 1 4 9 10 7
149 149 150 148 145 143 144 146 150 151 150 152 319 317 320 323 327 321 296 277 311 330 341 338 331 345 358 358 347 345 345 343 343 346 350 352 352 352 353 355 357 0 0 357
154 155 156 158 155 147 140 147 158 160 168 198 286 310 315 309 311 314 323 321 323 333 345 331 343 354 360 357 347 346 344 341 340 343 345 343 340 339 341 345 346 346 344 343
152 153 149 139 133 141 160 174 170 170 187 242 267 278 290 310 312 277 282 317 331 339 343 342 353 358 0 354 347 345 343 339 338 339 337 332 328 325 325 327 328 328 329 331
147 143 145 151 163 175 172 161 162 180 213 252 273 276 273 268 277 302 310 315 330 343 342 345 354 358 357 345 347 345 342 339 343 342 335 329 320 315 312 311 311 311 311 310
151 161 167 175 171 160 157 162 172 185 195 229 274 290 307 302 297 301 309 316 327 345 346 341 344 349 347 345 345 344 342 340 341 341 336 333 321 310 302 300 299 297 295 293
135 141 145 147 156 162 165 171 175 180 187 196 237 296 317 321 323 326 328 332 337 340 340 344 345 345 345 346 346 346 344 343 344 344 343 339 332 321 307 296 291 288 287 286
Height
1594 1596 1593 1594 1594 1594 1595 1597 1602 1599 1598 1594 1591 1588 1584 1580 1576 1572 1569 1565 1560 1555 1549 1544 1538 1532 1527 1521 1515 1509 1502 1496 1489 1483 1477 1471 1465 1459 1454 1448 1443 1438 1432 1428
1595 1597 1595 1595 1595 1594 1594 1595 1596 1597 1596 1591 1589 1586 1582 1578 1574 1571 1567 1563 1558 1553 1547 1542 1536 1531 1525 1519 1513 1507 1501 1494 1487 1481 1475 1469 1463 1457 1452 1447 1442 1437 1432 1427
1598 1600 1597 1596 1594 1593 1593 1593 1594 1596 1594 1589 1587 1584 1580 1576 1572 1570 1566 1561 1556 1551 1546 1540 1535 1530 1524 1518 1512 1505 1499 1492 1486 1479 1473 1467 1461 1456 1450 1445 1440 1435 1431 1426
1604 1602 1596 1593 1590 1591 1592 1591 1591 1590 1590 1588 1586 1582 1578 1574 1572 1568 1564 1560 1555 1549 1544 1539 1534 1528 1522 1516 1510 1504 1497 1490 1484 1478 1472 1466 1460 1454 1449 1444 1439 1434 1430 1425
1610 1603 1596 1592 1589 1589 1590 1591 1589 1589 1588 1586 1583 1579 1576 1574 1571 1567 1563 1558 1553 1548 1543 1537 1532 1526 1520 1514 1508 1502 1495 1489 1483 1477 1471 1465 1459 1453 1448 1443 1438 1433 1429 1425
1610 1599 1591 1587 1587 1587 1591 1592 1589 1588 1587 1584 1581 1580 1577 1573 1569 1565 1561 1556 1551 1546 1541 1535 1530 1524 1518 1512 1506 1500 1494 1488 1482 1476 1471 1465 1459 1453 1447 1442 1438 1433 1429 1425
1609 1607 1594 1587 1586 1588 1595 1593 1588 1586 1585 1583 1582 1581 1577 1572 1568 1563 1559 1554 1549 1544 1539 1534 1527 1521 1516 1510 1504 1498 1493 1487 1481 1475 1469 1464 1458 1452 1447 1442 1437 1433 1428 1425
1608 1610 1597 1584 1585 1588 1588 1586 1586 1585 1583 1581 1579 1577 1573 1569 1565 1561 1557 1552 1547 1542 1537 1532 1526 1520 1513 1508 1502 1497 1491 1485 1479 1473 1468 1462 1456 1451 1446 1441 1436 1432 1428 1424
1592 1589 1582 1582 1582 1584 1584 1584 1584 1582 1581 1578 1576 1573 1570 1567 1563 1559 1555 1550 1545 1540 1535 1530 1525 1518 1512 1506 1500 1494 1488 1482 1476 1470 1465 1460 1454 1449 1444 1439 1435 1431 1427 1423
1585 1581 1580 1581 1582 1583 1583 1583 1582 1580 1578 1575 1573 1571 1568 1565 1561 1557 1553 1548 1544 1538 1533 1528 1523 1517 1511 1504 1498 1492 1485 1479 1472 1466 1460 1455 1451 1446 1442 1437 1433 1430 1427 1423
1581 1579 1579 1580 1581 1582 1581 1580 1579 1577 1575 1573 1571 1568 1566 1563 1559 1556 1552 1547 1543 1538 1532 1527 1521 1515 1509 1503 1496 1489 1482 1475 1469 1462 1456 1451 1446 1443 1439 1435 1432 1429 1425 1423
1575 1573 1575 1577 1579 1580 1579 1578 1576 1575 1573 1571 1569 1567 1565 1562 1559 1555 1551 1547 1542 1537 1532 1526 1520 1514 1508 1501 1494 1487 1479 1472 1465 1459 1453 1448 1442 1437 1434 1432 1428 1425 1423 1421
1569 1571 1573 1575 1577 1577 1577 1575 1574 1573 1571 1570 1568 1566 1564 1561 1558 1555 1551 1546 1542 1536 1531 1525 1519 1513 1506 1500 1493 1485 1478 1470 1463 1457 1450 1444 1439 1434 1429 1426 1424 1421 1419 1417
1568 1571 1573 1574 1575 1575 1574 1573 1572 1571 1569 1568 1567 1565 1563 1561 1558 1554 1551 1546 1542 1536 1530 1524 1518 1512 1505 1498 1491 1484 1476 1469 1462 1455 1449 1443 1437 1432 1427 1423 1419 1417 1415 1414
1567 1570 1571 1572 1573 1573 1572 1571 1570 1569 1568 1567 1566 1565 1563 1560 1557 1554 1551 1546 1542 1536 1530 1524 1517 1511 1504 1497 1490 1483 1475 1467 1461 1455 1448 1441 1435 1430 1425 1421 1418 1415 1413 1411
1566 1568 1569 1570 1570 1570 1569 1569 1568 1568 1567 1567 1566 1564 1562 1560 1558 1555 1551 1546 1541 1535 1529 1523 1517 1511 1504 1497 1490 1482 1475 1468 1461 1454 1446 1439 1434 1429 1424 1420 1416 1413 1411 1410
1563 1565 1567 1568 1568 1568 1567 1567 1567 1567 1566 1566 1565 1564 1562 1561 1558 1555 1551 1547 1542 1536 1530 1523 1518 1511 1505 1498 1491 1483 1476 1468 1461 1453 1446 1439 1434 1428 1423 1419 1415 1413 1411 1409
1562 1564 1565 1566 1565 1565 1565 1565 1565 1565 1565 1565 1565 1564 1562 1561 1558 1555 1551 1547 1542 1537 1531 1525 1518 1512 1506 1499 1492 1485 1477 1470 1462 1454 1447 1440 1435 1429 1423 1419 1415 1413 1411 1409
1560 1562 1563 1563 1563 1563 1563 1563 1564 1564 1565 1565 1564 1563 1562 1560 1558 1555 1551 1547 1541 1535 1530 1524 1519 1513 1507 1500 1493 1487 1479 1471 1464 1457 1450 1443 1436 1430 1425 1420 1417 1414 1412 1411
1558 1559 1560 1560 1561 1561 1562 1562 1563 1564 1564 1564 1564 1563 1562 1561 1558 1555 1552 1547 1542 1536 1530 1524 1519 1513 1507 1501 1495 1489 1481 1474 1466 1459 1452 1446 1439 1433 1428 1424 1420 1417 1415 1413
1555 1557 1558 1558 1559 1560 1560 1561 1562 1563 1563 1564 1564 1564 1563 1561 1559 1556 1552 1547 1543 1537 1532 1526 1521 1514 1508 1503 1498 1491 1484 1476 1469 1462 1456 1450 1443 1437 1432 1427 1424 1421 1418 1416
1552 1554 1555 1556 1557 1558 1559 1560 1561 1562 1563 1563 1564 1563 1563 1561 1559 1557 1553 1548 1543 1538 1532 1527 1521 1516 1511 1506 1500 1493 1486 1479 1472 1466 1460 1454 1447 1441 1436 1432 1428 1424 1421 1419
1550 1552 1553 1554 1555 1556 1558 1559 1560 1561 1562 1563 1563 1563 1562 1561 1559 1556 1552 1549 1544 1539 1534 1529 1523 1518 1513 1508 1502 1495 1489 1481 1475 1469 1463 1457 1452 1446 1441 1436 1431 1428 1424 1421
1547 1549 1551 1552 1553 1554 1556 1557 1559 1560 1561 1562 1563 1563 1562 1561 1560 1557 1553 1549 1545 1540 1535 1530 1525 1520 1515 1509 1503 1497 1491 1484 1478 1472 1466 1461 1455 1449 1444 1439 1435 1431 1427 1423
1545 1546 1548 1549 1551 1552 1554 1556 1558 1559 1561 1561 1562 1562 1562 1561 1559 1557 1554 1550 1546 1541 1537 1532 1527 1521 1516 1510 1505 1499 1493 1487 1481 1475 1469 1463 1457 1451 1446 1441 1437 1432 1428 1425
1542 1544 1545 1547 1549 1551 1552 1554 1556 1558 1559 1561 1561 1562 1562 1561 1559 1557 1554 1551 1547 1542 1538 1533 1528 1523 1517 1512 1507 1501 1496 1490 1484 1478 1472 1466 1460 1454 1448 1443 1438 1433 1429 1424
1539 1541 1542 1544 1546 1548 1550 1552 1554 1556 1558 1560 1561 1561 1561 1561 1560 1558 1555 1552 1548 1544 1539 1534 1529 1524 1519 1514 1509 1504 1498 1493 1487 1481 1475 1469 1463 1457 1451 1445 1439 1434 1429 1424